When you browse on this site, cookies collect data to enhance your experience and personalize the content and advertising you see.
Visit our Privacy Policy to learn more. By continuing to use the site, you agree to this use of cookies and data.
  • In Österreich
  • Länderverzeichnis
  • Für 7 Tage
  • Wassertemperatur
  • Satellitenkarten
  • Wetterkarte
  • News
  • Widgets
  • user-avatar
    Anmelden

    Stündliche Wetter Krobielewko

    Heute, 21 März, Donnerstag

    Zeit Temperatur Niederschläge Wind Luftdruck Luftfeuchtigkeit
    00:00 +7°C° 0 mm 3 m/S 770 mmHg 79%
    01:00 +7°C° 0 mm 3 m/S 770 mmHg 84%
    02:00 +7°C° 0 mm 2 m/S 770 mmHg 88%
    03:00 +6°C° 0 mm 2 m/S 770 mmHg 92%
    04:00 +6°C° 0 mm 2 m/S 770 mmHg 95%
    05:00 +6°C° 0 mm 2 m/S 770 mmHg 96%
    06:00 +6°C° 0 mm 2 m/S 770 mmHg 96%
    07:00 +6°C° 0 mm 2 m/S 771 mmHg 97%
    08:00 +8°C° 0 mm 3 m/S 771 mmHg 90%
    09:00 +9°C° 0 mm 3 m/S 771 mmHg 83%
    10:00 +11°C° 0 mm 4 m/S 771 mmHg 76%
    11:00 +11°C° 0 mm 4 m/S 771 mmHg 74%
    12:00 +12°C° 0 mm 4 m/S 771 mmHg 72%
    13:00 +13°C° 0 mm 4 m/S 771 mmHg 70%
    14:00 +13°C° 0 mm 4 m/S 770 mmHg 70%
    15:00 +13°C° 0 mm 3 m/S 770 mmHg 69%
    16:00 +14°C° 0 mm 3 m/S 770 mmHg 69%
    17:00 +13°C° 0 mm 3 m/S 770 mmHg 72%
    18:00 +12°C° 0 mm 3 m/S 770 mmHg 76%
    19:00 +13°C° 0 mm 2 m/S 770 mmHg 80%
    20:00 +12°C° 0 mm 2 m/S 770 mmHg 83%
    21:00 +12°C° 0 mm 2 m/S 770 mmHg 86%
    22:00 +10°C° 0 mm 2 m/S 770 mmHg 88%
    23:00 +10°C° 0 mm 2 m/S 770 mmHg 89%

    Morgen, 22 März, Freitag

    Zeit Temperatur Niederschläge Wind Luftdruck Luftfeuchtigkeit
    00:00 +10°C° 0 mm 2 m/S 770 mmHg 90%
    01:00 +9°C° 0 mm 2 m/S 770 mmHg 92%
    02:00 +9°C° 0 mm 2 m/S 770 mmHg 93%
    03:00 +9°C° 0 mm 2 m/S 770 mmHg 94%
    04:00 +10°C° 0 mm 1 m/S 770 mmHg 95%
    05:00 +10°C° 0 mm 1 m/S 770 mmHg 95%
    06:00 +9°C° 0 mm 1 m/S 770 mmHg 96%
    07:00 +9°C° 0 mm 1 m/S 770 mmHg 96%
    08:00 +11°C° 0 mm 1 m/S 770 mmHg 88%
    09:00 +12°C° 0 mm 1 m/S 771 mmHg 81%
    10:00 +14°C° 0 mm 1 m/S 771 mmHg 73%
    11:00 +15°C° 0 mm 1 m/S 770 mmHg 68%
    12:00 +16°C° 0 mm 1 m/S 770 mmHg 63%
    13:00 +18°C° 0 mm 1 m/S 770 mmHg 58%
    14:00 +19°C° 0 mm 1 m/S 770 mmHg 58%
    15:00 +19°C° 0 mm 1 m/S 769 mmHg 57%
    16:00 +17°C° 0 mm 0 m/S 769 mmHg 57%
    17:00 +18°C° 0 mm 1 m/S 769 mmHg 62%
    18:00 +15°C° 0 mm 1 m/S 768 mmHg 68%
    19:00 +14°C° 0 mm 2 m/S 768 mmHg 74%
    20:00 +13°C° 0 mm 2 m/S 768 mmHg 78%
    21:00 +12°C° 0 mm 2 m/S 768 mmHg 82%
    22:00 +12°C° 0 mm 2 m/S 768 mmHg 86%
    23:00 +10°C° 0 mm 2 m/S 768 mmHg 88%

    übermorgen, 23 März, Samstag

    Zeit Temperatur Niederschläge Wind Luftdruck Luftfeuchtigkeit
    00:00 +10°C° 0 mm 2 m/S 767 mmHg 89%
    01:00 +10°C° 0 mm 2 m/S 767 mmHg 91%
    02:00 +9°C° 0 mm 2 m/S 767 mmHg 91%
    03:00 +9°C° 0 mm 2 m/S 766 mmHg 92%
    04:00 +9°C° 0 mm 2 m/S 766 mmHg 92%
    05:00 +9°C° 0 mm 2 m/S 766 mmHg 91%
    06:00 +9°C° 0 mm 2 m/S 766 mmHg 89%
    07:00 +9°C° 0 mm 2 m/S 766 mmHg 88%
    08:00 +12°C° 0 mm 2 m/S 765 mmHg 79%
    09:00 +14°C° 0 mm 2 m/S 765 mmHg 70%
    10:00 +16°C° 0 mm 2 m/S 765 mmHg 61%
    11:00 +17°C° 0 mm 3 m/S 765 mmHg 58%
    12:00 +18°C° 0 mm 3 m/S 765 mmHg 54%
    13:00 +19°C° 0 mm 3 m/S 765 mmHg 51%
    14:00 +19°C° 0.1 mm 3 m/S 765 mmHg 53%
    15:00 +19°C° 0.1 mm 4 m/S 765 mmHg 55%
    16:00 +18°C° 0.1 mm 4 m/S 764 mmHg 56%
    17:00 +15°C° 0 mm 4 m/S 765 mmHg 64%
    18:00 +13°C° 0 mm 4 m/S 765 mmHg 71%
    19:00 +11°C° 0 mm 4 m/S 766 mmHg 78%
    20:00 +10°C° 0 mm 4 m/S 766 mmHg 74%
    21:00 +8°C° 0 mm 4 m/S 767 mmHg 71%
    22:00 +8°C° 0 mm 3 m/S 767 mmHg 68%
    23:00 +7°C° 0 mm 3 m/S 768 mmHg 66%

    24 März, Sonntag

    Zeit Temperatur Niederschläge Wind Luftdruck Luftfeuchtigkeit
    00:00 +5°C° 0 mm 3 m/S 768 mmHg 64%
    01:00 +6°C° 0 mm 2 m/S 768 mmHg 62%
    02:00 +5°C° 0 mm 2 m/S 768 mmHg 63%
    03:00 +5°C° 0 mm 2 m/S 768 mmHg 64%
    04:00 +4°C° 0 mm 2 m/S 768 mmHg 66%
    05:00 +4°C° 0 mm 2 m/S 768 mmHg 66%
    06:00 +4°C° 0 mm 2 m/S 768 mmHg 67%
    07:00 +4°C° 0 mm 2 m/S 768 mmHg 67%
    08:00 +5°C° 0 mm 2 m/S 768 mmHg 60%
    09:00 +7°C° 0 mm 2 m/S 768 mmHg 53%
    10:00 +8°C° 0 mm 2 m/S 768 mmHg 46%
    11:00 +9°C° 0 mm 2 m/S 767 mmHg 42%
    12:00 +12°C° 0 mm 2 m/S 767 mmHg 38%
    13:00 +13°C° 0 mm 1 m/S 766 mmHg 34%
    14:00 +13°C° 0 mm 1 m/S 766 mmHg 33%
    15:00 +13°C° 0 mm 1 m/S 765 mmHg 33%
    16:00 +12°C° 0 mm 1 m/S 764 mmHg 33%
    17:00 +11°C° 0 mm 1 m/S 764 mmHg 38%
    18:00 +9°C° 0 mm 2 m/S 764 mmHg 43%
    19:00 +7°C° 0 mm 2 m/S 764 mmHg 49%
    20:00 +7°C° 0 mm 2 m/S 763 mmHg 52%
    21:00 +7°C° 0 mm 1 m/S 763 mmHg 54%
    22:00 +7°C° 0 mm 1 m/S 763 mmHg 57%
    23:00 +7°C° 0 mm 1 m/S 763 mmHg 58%

    25 März, Montag

    Zeit Temperatur Niederschläge Wind Luftdruck Luftfeuchtigkeit
    00:00 +7°C° 0 mm 1 m/S 762 mmHg 60%
    01:00 +7°C° 0 mm 1 m/S 762 mmHg 61%
    02:00 +6°C° 0 mm 1 m/S 761 mmHg 63%
    03:00 +6°C° 0 mm 1 m/S 761 mmHg 64%
    04:00 +5°C° 0 mm 1 m/S 761 mmHg 66%
    05:00 +4°C° 0 mm 2 m/S 761 mmHg 68%
    06:00 +4°C° 0 mm 2 m/S 761 mmHg 69%
    07:00 +3°C° 0 mm 3 m/S 761 mmHg 71%
    08:00 +5°C° 0 mm 4 m/S 760 mmHg 62%
    09:00 +6°C° 0 mm 5 m/S 760 mmHg 54%
    10:00 +7°C° 0 mm 5 m/S 760 mmHg 46%
    11:00 +7°C° 0 mm 6 m/S 759 mmHg 50%
    12:00 +8°C° 0 mm 7 m/S 759 mmHg 54%
    13:00 +8°C° 0 mm 7 m/S 758 mmHg 58%
    14:00 +6°C° 0.6 mm 7 m/S 758 mmHg 61%
    15:00 +6°C° 0.6 mm 8 m/S 757 mmHg 64%
    16:00 +5°C° 0.6 mm 8 m/S 757 mmHg 66%
    17:00 +4°C° 0.2 mm 7 m/S 757 mmHg 67%
    18:00 +3°C° 0.2 mm 6 m/S 757 mmHg 68%
    19:00 +3°C° 0.2 mm 5 m/S 757 mmHg 69%
    20:00 +2°C° 0 mm 5 m/S 757 mmHg 70%
    21:00 +2°C° 0 mm 6 m/S 757 mmHg 71%
    22:00 0°C° 0 mm 7 m/S 757 mmHg 73%
    23:00 0°C° 0 mm 7 m/S 756 mmHg 72%

    26 März, Dienstag

    Zeit Temperatur Niederschläge Wind Luftdruck Luftfeuchtigkeit
    00:00 0°C° 0 mm 7 m/S 756 mmHg 72%
    01:00 0°C° 0 mm 7 m/S 756 mmHg 71%
    02:00 0°C° 0 mm 7 m/S 756 mmHg 70%
    03:00 0°C° 0 mm 8 m/S 756 mmHg 68%
    04:00 0°C° 0 mm 8 m/S 756 mmHg 67%
    05:00 0°C° 0.1 mm 8 m/S 756 mmHg 63%
    06:00 -1°C° 0.1 mm 8 m/S 756 mmHg 60%
    07:00 -1°C° 0.1 mm 8 m/S 757 mmHg 56%
    08:00 0°C° 0 mm 9 m/S 758 mmHg 54%
    09:00 0°C° 0 mm 9 m/S 759 mmHg 52%
    10:00 0°C° 0 mm 9 m/S 759 mmHg 50%
    11:00 +1°C° 0 mm 9 m/S 760 mmHg 48%
    12:00 +1°C° 0 mm 9 m/S 761 mmHg 45%
    13:00 +2°C° 0 mm 9 m/S 761 mmHg 43%
    14:00 +2°C° 0 mm 8 m/S 762 mmHg 44%
    15:00 +2°C° 0 mm 8 m/S 762 mmHg 46%
    16:00 +2°C° 0 mm 7 m/S 763 mmHg 47%
    17:00 +2°C° 0 mm 7 m/S 764 mmHg 50%
    18:00 +1°C° 0 mm 6 m/S 764 mmHg 53%
    19:00 0°C° 0 mm 5 m/S 765 mmHg 56%
    20:00 -1°C° 0 mm 5 m/S 765 mmHg 58%
    21:00 -1°C° 0 mm 5 m/S 766 mmHg 59%
    22:00 -1°C° 0 mm 4 m/S 766 mmHg 61%
    23:00 -1°C° 0 mm 4 m/S 766 mmHg 62%
    Mehr zeigen